默认 日期 大小 文件数 浏览量 最新下载 xml
event磁力链接相关资源由用户搜索指令自动获取,结果来源于网络,本站不存储任何资料,亦不承担任何责任,请于24小时内删除,搜索到6556个磁力,显示前4000条数据,用时7ms。
    {"Downloaded_from_Nulled.ch.txt": 25, "Event Espresso 4.9.79 - Events registration plugin.rar": 8979262}
创建时间: 2019-07-25 21:29:49 大小:8.56 MB 文件数量:2 热度:6 最近下载:2025-03-06 23:56:03
    {"02 - Pre-Event Press Conference - Assen 1080p50.mp4": 2477989677, "01 - Pre-Event Interview - Rins - This wasn't the best start to the season.mp4": 407287822}
创建时间: 2019-08-10 02:46:08 大小:2.69 GB 文件数量:2 热度:6 最近下载:2025-03-10 16:48:01
    {"Glory.43.New.York.Kickboxing.720p.HDTV.x264-Ebi.mp4": 3638793159, "Glory.43.Super.Fight.Series.720p.WEB-DL.H264.Fight-BB.mp4": 4133598516}
创建时间: 2019-08-11 02:35:51 大小:7.24 GB 文件数量:2 热度:6 最近下载:2022-11-12 09:47:06
    ... 113, "DESCARGAS2020.url": 124, "The Event - Temporada 1 [HDTV 720p][Cap ... .ORG].mkv": 1109143443, "The Event - Temporada 1 [HDTV 720p][ ... .ORG].mkv": 1141517142, "The Event - Temporada 1 [HDTV 720p][ ... .ORG].mkv": 1175847238, "The Event - Temporada 1 [HDTV 720p][ ...
创建时间: 2019-08-14 04:12:27 大小:23.15 GB 文件数量:24 热度:6 最近下载:2022-11-15 18:51:52
    {"01.jpg": 457648, "02.jpg": 322292, "03.jpg": 583932, "04.jpg": 631620, "05.jpg": 402753, "06.jpg": 361289, "07.jpg": 368403, "08.jpg": 352649, "09.jpg": 409308, "10.jpg": 347586, "11.jpg": 538568, "12.jpg": 463975, "13.jpg": 472899, "14.jpg": 417544, "15 ...
创建时间: 2019-08-20 10:02:34 大小:7.82 MB 文件数量:18 热度:6 最近下载:2025-03-13 13:01:56
    ... .19.lopez.vs.nakatani.main.event.720p.web.h264-levitate.mkv ... .19.lopez.vs.nakatani.main.event.720p.web.h264-levitate.nfo ...
创建时间: 2019-08-20 18:33:06 大小:8.2 GB 文件数量:8 热度:6 最近下载:2025-03-14 09:51:01
    {"[TGx]Downloaded from torrentgalaxy.to .txt": 689, "WWE.Main.Event.2019.08.15.720p.HDTV.x264-WH.mp4": 2408066916}
创建时间: 2019-08-21 11:37:21 大小:2.24 GB 文件数量:2 热度:6 最近下载:2025-08-22 18:47:01
    {"[TGx]Downloaded from torrentgalaxy.org .txt": 691, "WWE.Main.Event.2019.04.25.HDTV.x264-Sure.mp4": 510727272}
创建时间: 2019-08-21 17:51:02 大小:487.07 MB 文件数量:2 热度:6 最近下载:2025-08-11 14:22:02
    {"UFC.Fight.Night.79.720p.WEB-DL.x264.Fight-BB.mp4": 4378702709, "UFC.Fight.Night.79.Prelims.720p.WEB-DL.x264.Fight-BB.mp4": 5771736022}
创建时间: 2019-08-21 19:42:19 大小:9.45 GB 文件数量:2 热度:6 最近下载:2022-11-12 10:00:55
    ... 01.mp4": 807753936, "WSOP 2015 - Event 2 - Final Table - Part 02 ... .mp4": 708589909, "WSOP 2015 - Event 2 - Final Table - Part 03 ... .mp4": 854720072, "WSOP 2015 - Event 2 - Final Table - Part 04 ... .mp4": 820289133, "WSOP 2015 - Event 2 - Final Table - Part 05 ...
创建时间: 2019-08-24 05:56:18 大小:4.04 GB 文件数量:6 热度:6 最近下载:2025-01-31 07:59:02
    {"UFC.on.FOX.15.720p.HDTV.x264-KILLERS.mkv": 4747401540, "UFC.on.FOX.15.Preliminary.Fights.720p.HDTV.x264-KILLERS.mkv": 4172691470}
创建时间: 2019-08-24 18:47:42 大小:8.31 GB 文件数量:2 热度:6 最近下载:2022-11-12 12:59:35
    {"Downloaded from www.torrenting.com.txt": 84, "World.Series.Of.Poker.2014.Main.Event.Part12.HDTV.XviD-AFG.avi": 970633748, "World.Series.Of.Poker.2014.Main.Event.Part12.HDTV.XviD-AFG.nfo": 474}
创建时间: 2019-08-25 02:07:03 大小:925.67 MB 文件数量:3 热度:6 最近下载:2024-08-30 12:47:01
    {"UFC.Fight.Night.85.WEB-DL.x264.Fight-BB.mp4": 2043005820, "UFC.Fight.Night.85.Prelims.WEB-DL.x264.Fight-BB.mp4": 1371088720, "UFC.Fight.Night.85.Early.Prelims.WEB-DL.x264.Fight-BB.mp4": 675686434}
创建时间: 2019-08-26 07:37:45 大小:3.81 GB 文件数量:3 热度:6 最近下载:2025-03-27 19:58:04
    {"[TGx]Downloaded from torrentgalaxy.org .txt": 691, "WWE.Main.Event.2019.05.09.720p.WEB.h264-HEEL.mp4": 1494799034}
创建时间: 2019-08-28 11:18:41 大小:1.39 GB 文件数量:2 热度:6 最近下载:2022-11-12 10:55:50
    {"Glory.48.720p.HDTV.H264.Fight-BB.mp4": 2914909174, "Glory.48.Super.Fight.Series.720p.WEB-DL.H264.Fight-BB.mp4": 4071853285}
创建时间: 2019-09-24 01:11:51 大小:6.51 GB 文件数量:2 热度:6 最近下载:2025-04-03 21:01:57
    ... , "Booklet 4.png": 3752477}, "The Event.cue": 1873, "02 - Crown.flac ... - Twilights.flac": 26920350, "06 - The Event.flac": 28301319, "01 - One By ... ": 21496242, "05 - Intro To The Event.flac": 12475168, "Ashqelon Quilt - The ...
创建时间: 2019-09-27 14:21:15 大小:328.95 MB 文件数量:19 热度:6 最近下载:2024-04-11 15:15:02
    ... .com.txt": 85, "WWE.Main.Event.2019.09.12.720p.HEVC ... -MeGusta.mkv": 1313564246, "WWE.Main.Event.2019.09.12.720p.HEVC ...
创建时间: 2019-09-29 06:59:25 大小:1.23 GB 文件数量:6 热度:6 最近下载:2025-02-18 17:45:02
    {"RARBG.txt": 30, "RARBG_DO_NOT_MIRROR.exe": 99, "wwe.main.event.2019.09.12.1080p.web.x264-levitate.mkv": 3371852187, "wwe.main.event.2019.09.12.1080p.web.x264-levitate.nfo": 175}
创建时间: 2019-09-29 14:07:09 大小:3.14 GB 文件数量:4 热度:6 最近下载:2023-04-22 10:40:27
    {"setup.exe": 5437177, "setup-fitgirl-01.bin": 1128862879, "setup-fitgirl-02.bin": 234065404, "setup-fitgirl-03.bin": 128126256, "setup-fitgirl-04.bin": 90311436, "setup-fitgirl-05.bin": 12368661, "FitGirl releases on Tapochek.net.url": 150}
创建时间: 2019-09-29 20:22:21 大小:1.49 GB 文件数量:7 热度:6 最近下载:2023-04-22 13:00:21
    {"Subs": {"2_English.srt": 115572}, "RARBG.txt": 30, "RARBG_DO_NOT_MIRROR.exe": 99, "The.Main.Event.1979.WEBRip.x264-ION10.mp4": 1117165583}
创建时间: 2019-09-29 20:23:31 大小:1.04 GB 文件数量:4 热度:6 最近下载:2023-04-22 13:00:16